Location: Peterborough
(44.3091°N, 78.3197°W)
Time: 07:19:56
(UTC-04:00)

Vanguard 2 - Pass Details

Date: 22 March 2023
Orbit: 552 x 2926 km, 32.9° (Epoch: 04 June)

Event Time Altitude Azimuth Distance (km) Brightness Sun altitude
Rises 12:27:08 0° 269° (W) 5,495 11.8 44.8°
Reaches altitude 10° 12:31:58 10° 259° (W) 4,049 11.3 45.1°
Maximum altitude 12:39:47 26° 209° (SSW) 2,248 10.9 45.5°
Drops below altitude 10° 12:45:09 10° 154° (SSE) 2,690 11.3 45.7°
Sets 12:47:41 0° 140° (SE) 3,380 11.4 45.8°
